DL3NBY Weather Reports


time (UTC)temp
C
wind
direction
speed
KPH
gust
KPH
rain 1hr
cm
rain 24hr
cm
rain mn
cm
humidity
%
barometer
mb
20240418171021 10 0.0 0.0 0.00 0.51 0.48 68 1015.5
20240418165134 10 208 1.6 4.8 0.00 0.51 0.48 60 1015.3
20240418164110 10 318 1.6 4.8 0.00 0.51 0.48 60 1015.3
20240418163127 10 64 1.6 6.4 0.00 0.51 0.48 60 1015.2
20240418162144 10 55 1.6 6.4 0.00 0.51 0.48 62 1015.2
20240418161101 9 100 1.6 6.4 0.00 0.51 0.48 64 1015.3
20240418160058 9 103 1.6 11.3 0.00 0.51 0.48 67 1015.2
20240418155054 10 103 1.6 6.4 0.00 0.51 0.48 69 1015.1
20240418154051 11 310 1.6 14.5 0.00 0.51 0.48 65 1015.0
20240418152044 11 342 0.0 4.8 0.00 0.51 0.48 62 1014.9
20240418151101 11 70 3.2 11.3 0.00 0.51 0.48 59 1014.9
20240418150038 11 63 1.6 8.0 0.00 0.51 0.48 62 1014.8
20240418143049 11 341 1.6 6.4 0.00 0.51 0.48 66 1014.9
20240418140019 11 251 1.6 11.3 0.00 0.51 0.48 68 1014.8
20240418135016 12 292 1.6 6.4 0.00 0.51 0.48 68 1014.6
20240418134132 11 348 1.6 4.8 0.00 0.51 0.48 62 1014.6
20240418132106 11 260 1.6 12.9 0.00 0.51 0.48 58 1014.7
20240418131103 11 135 1.6 12.9 0.00 0.51 0.48 60 1014.6
20240418124119 9 100 3.2 16.1 0.00 0.51 0.48 73 1014.8
20240418123050 10 246 1.6 3.2 0.00 0.51 0.48 76 1014.7
20240418122047 9 293 0.0 8.0 0.00 0.51 0.48 73 1014.6
20240418121047 8 243 0.0 3.2 0.05 0.51 0.48 76 1014.6
20240418120040 9 84 1.6 8.0 0.05 0.51 0.48 76 1014.5
20240418115037 9 241 1.6 4.8 0.05 0.51 0.48 74 1014.5
20240418104111 8 57 1.6 6.4 0.00 0.51 0.43 83 1014.5
20240418103108 7 133 4.8 11.3 0.00 0.53 0.43 84 1014.5
20240418102104 6 55 1.6 6.4 0.00 0.56 0.43 89 1014.5
20240418094051 7 52 1.6 6.4 0.38 0.56 0.43 88 1014.4
20240418093128 6 236 1.6 6.4 0.38 0.56 0.43 94 1014.3
20240418092045 5 270 0.0 3.2 0.38 0.56 0.43 97 1014.3
20240418091042 4 0.0 3.2 0.38 0.56 0.43 96 1014.3
20240418090038 5 113 1.6 6.4 0.30 0.48 0.33 93 1014.3
20240418085035 6 58 0.0 6.4 0.13 0.30 0.15 89 1014.2
20240418084032 6 270 0.0 3.2 0.00 0.18 0.03 87 1014.0
20240418083029 6 0 0.0 3.2 0.00 0.18 0.03 87 1013.8
20240418082026 5 85 1.6 6.4 0.00 0.18 0.03 89 1013.7
20240418075016 5 90 0.0 3.2 0.00 0.18 0.03 93 1013.4
20240418074113 5 0.0 0.0 0.00 0.18 0.03 94 1013.3
20240418073109 5 0.0 0.0 0.00 0.18 0.03 96 1013.1
20240418071102 4 0.0 1.6 0.00 0.18 0.03 98 1013.0
20240418065056 4 0.0 3.2 0.00 0.18 0.03 99 1012.8
20240418064052 4 0.0 1.6 0.00 0.18 0.03 99 1012.6
20240418060039 3 0.0 0.0 0.00 0.18 0.03 99 1012.1
20240418054053 3 0.0 0.0 0.03 0.18 0.03 99 1011.9
20240418053029 3 0.0 0.0 0.03 0.18 0.03 99 1011.7
20240418052026 2 0.0 0.0 0.03 0.18 0.03 99 1011.6
20240418051043 2 0.0 0.0 0.03 0.18 0.03 99 1011.5
20240418045017 2 0.0 0.0 0.00 0.15 0.00 99 1011.2
20240418044114 2 0.0 0.0 0.00 0.15 0.00 99 1011.0
20240418043110 2 0.0 0.0 0.00 0.15 0.00 99 1011.0
20240418040121 1 0.0 0.0 0.00 0.15 0.00 99 1010.6
20240418034055 2 0.0 0.0 0.00 0.15 0.00 99 1010.4
20240418033052 2 0.0 0.0 0.00 0.15 0.00 99 1010.5
20240418032048 2 0.0 0.0 0.00 0.15 0.00 99 1010.4
20240418024033 1 0.0 0.0 0.00 0.15 0.00 99 1010.2
20240418023100 2 0.0 0.0 0.00 0.15 0.00 99 1010.2
20240418022057 2 0.0 0.0 0.00 0.15 0.00 99 1010.2
20240418021114 2 0.0 0.0 0.00 0.15 0.00 99 1010.1
20240418020051 2 0.0 0.0 0.00 0.15 0.00 99 1010.0
20240418015047 2 0.0 0.0 0.00 0.15 0.00 99 1010.0
20240418014104 2 0.0 0.0 0.00 0.15 0.00 99 1010.0
20240418011035 2 0.0 0.0 0.00 0.15 0.00 99 1009.8
20240418010032 1 0.0 0.0 0.00 0.15 0.00 99 1009.8
20240418005029 2 0.0 0.0 0.00 0.15 0.00 99 1009.8
20240418003023 2 0.0 0.0 0.00 0.15 0.00 99 1009.9
20240418002019 2 0.0 0.0 0.00 0.15 0.00 99 1009.9
20240418001016 2 0.0 0.0 0.00 0.15 0.00 99 1009.7
20240417235110 2 0.0 0.0 0.00 0.15 0.00 99 1009.8
20240417234107 2 0.0 0.0 0.00 0.15 0.00 98 1009.7
20240417233103 2 0.0 0.0 0.00 0.15 0.00 98 1009.7
20240417232100 2 0.0 0.0 0.00 0.15 0.00 98 1009.7
20240417231057 3 0.0 0.0 0.00 0.15 0.00 97 1009.6
20240417224107 3 0 0.0 3.2 0.03 0.15 0.00 96 1009.4
20240417223104 4 0.0 0.0 0.03 0.15 0.00 95 1009.4
20240417222041 5 90 0.0 6.4 0.03 0.15 0.00 96 1009.3
20240417220034 5 0.0 0.0 0.03 0.15 0.00 96 1009.3
20240417214028 5 0.0 0.0 0.00 0.13 0.13 94 1009.1
20240417212021 5 0.0 0.0 0.00 0.13 0.13 92 1009.0
20240417211018 5 0.0 0.0 0.00 0.13 0.13 91 1008.8
20240417205112 5 0.0 0.0 0.00 0.13 0.13 90 1008.8
20240417204109 5 180 0.0 6.4 0.00 0.13 0.13 90 1008.6
20240417203105 5 90 0.0 4.8 0.00 0.13 0.13 88 1008.6
20240417202102 5 0.0 3.2 0.00 0.13 0.13 89 1008.6
20240417201102 4 0.0 6.4 0.00 0.13 0.13 94 1008.5
20240417194049 3 0 0.0 3.2 0.00 0.13 0.13 97 1008.3
20240417193047 3 180 0.0 3.2 0.00 0.13 0.13 97 1008.2
20240417192043 3 0.0 3.2 0.00 0.13 0.13 96 1008.2
20240417191040 3 0.0 3.2 0.00 0.13 0.13 97 1008.2
20240417190036 4 0.0 0.0 0.00 0.13 0.13 96 1008.1
20240417185033 4 0.0 0.0 0.00 0.13 0.13 96 1008.0
20240417184050 4 0.0 0.0 0.00 0.13 0.13 95 1007.8
20240417182024 4 0.0 3.2 0.00 0.13 0.13 95 1007.7
20240417181021 5 0.0 1.6 0.00 0.13 0.13 92 1007.5
20240417174114 6 0.0 0.0 0.00 0.13 0.13 82 1007.2
20240417172105 7 0.0 0.0 0.00 0.13 0.13 89 1007.0